Retour au catalogue

DIAMANT DEB

ActifLEO
NORAD 2685·DEBRIS·🇫🇷 France

Lancé Feb 15, 1967 depuis Hammaguir Space Track Range

Loading…

Prochains Passages (prochaines 24 heures)

TLE

FraisSource: Space-Track

Époque: Sep 14, 2026, 15:14 UTC

1 02685U 67014F   26257.63485498  .00003230  00000-0  54161-3 0  9996
2 02685  38.9339   0.7697 0340897 307.9036  49.1350 14.38620113980363

Suivez DIAMANT DEB en temps réel avec AllMySat

Download on the App Store